TITAN 3C TRANSTAGE DEB, 1680

Orbit data source: Space-Track

TITAN 3C TRANSTAGE DEB, 1680 is space debris in LEO originally from a launch on Fri, 15 Oct 1965 UTC launched from the Air Force Eastern Test Range (AFETR). Debris objects in space refer to the collection of defunct objects orbiting the Earth. Examples of debris include non-operational satellites, rocket bodies, and fragments generated from explosions, collisions, or faulty payload assembly.

Loading next visibility...
Identifier
1680, 1965-082AT
Orbit
LEO
Last TLE update
17 hours ago
Origin
Manufacturer
Unknown
Mission
Spacecraft
Bus & Motor
Unknown
Mass
Unknown
Launch date (UTC)
1965-10-15 (60 years ago)
Launch vehicle
Unknown
Launch site
Air Force Eastern Test Range (AFETR)
Object type
Payload
Rocket body
Debris
Shape & HBR
Unknown
Radar Cross Section
2.100 m², Large (>1 m²)

Expand to show TLE details & history

TLE from 17 hours ago
0 TITAN 3C TRANSTAGE DEB
1 01680U 65082AT  25181.47530690  .00000257  00000-0  39984-4 0  9998
2 01680  32.2557  93.2486 0020929 294.3047  65.5416 14.65364175162024
Epoch: 2025-06-30T11:24Z
TLE epoch observation values (Epoch: 2025-06-30T11:24:26.516Z)
Latitude
0.00001°
Longitude
3.35355°
Altitude
668.481 km
Speed
7.528 km/s
True Right ascension
06h 12m 59s
True Declination
0° 00' 00"
Sunlit
Object was in daylight at epoch
Visualization orbit readout
Latitude
32.3867°
Longitude
90.6961°
Altitude
688.65 km
Speed
7.511 km/s
Apparent Right ascension
08h 36m 51s
Apparent Declination
-3° 20' 50"
Sunlit
Object is in daylight
Visualization observer readout
Local Sidereal Time
15:47:45
Azimuth
278.976° WNW
Elevation
-15.696°
Doppler factor
1
Orbital elements
Apogee altitude
694.259 km
Perigee altitude
664.717 km
Semi-major axis
7,057.625 km
Eccentricity
0.00209
Inclination
32.2557°
RAAN
93.2486°
Arg. of periapsis
294.3047°
True anomaly
Unknown
Mean anomaly
65.5416°
Eccentric anomaly
Unknown
Mean motion
3.66063 °/min
Orbital period
98.34 mins
BSTAR
0.000039984
Loading maneuver chart data...
Loading SW <> Apogee altitude chart data...

TITAN 3C TRANSTAGE DEB Visibility forecast

Observer location: undefined°, undefined°

Span
Click to sort rows by Start time (UTC) header in descending order
Start Az.
Max El. time (UTC)
Max El. Az.
Max El.
End time (UTC)
End Az.
7 mins2025-07-01 21:59:19.818Z215.321° SW2025-07-01 22:03:19.818Z159.577° S21.682°2025-07-01 22:06:19.818Z117.046° SE
7 mins2025-07-01 23:43:19.818Z235.357° WSW2025-07-01 23:46:19.818Z187.687° SSW28.714°2025-07-01 23:50:19.818Z119.703° SE
7 mins2025-07-02 01:27:19.818Z240.366° WSW2025-07-02 01:30:19.818Z192.83° SSW23.962°2025-07-02 01:34:19.818Z137.909° SSE
|